Observations for Trim Market St
| Time | AQI | Temp °C | Hum % | Pres Pa | CO μg/m³ | H₂S μg/m³ | NO μg/m³ | NO₂ μg/m³ | O₃ μg/m³ | SO₂ μg/m³ | PM1 μg/m³ | PM2.5 μg/m³ | PM10 μg/m³ |
|---|---|---|---|---|---|---|---|---|---|---|---|---|---|
| Sunday 23 August 2026 | |||||||||||||
| 07:43 | 2 | 14.6 | 68 | 56,859 | 0.42 | 0 | 2.97 | 8.55 | 45.61 | 0 | 1.43 | 2.65 | 4.98 |
| 07:42 | 2 | 14.6 | 68 | 56,856 | 0.4 | 0 | 2.97 | 8.4 | 46.22 | 0 | 0.71 | 2.65 | 4.35 |
| 07:41 | 2 | 14.6 | 68 | 56,855 | 0.39 | 0 | 3.03 | 7.97 | 46.2 | 0 | 1.43 | 2.64 | 4.35 |
| 07:40 | 2 | 14.6 | 68 | 56,852 | 0.4 | 0 | 3.28 | 17.37 | 37.32 | 0 | 0.71 | 2.15 | 3.71 |
| 07:39 | 2 | 14.5 | 68 | 56,848 | 0.42 | 0 | 3.19 | 24.63 | 28.65 | 0 | 1.43 | 3.12 | 5.62 |
| 07:38 | 2 | 14.5 | 68 | 56,841 | 0.39 | 0 | 3.03 | 16.12 | 34.76 | 0 | 1.43 | 2.64 | 4.35 |
| 07:37 | 2 | 14.5 | 69 | 56,833 | 0.37 | 0 | 2.22 | 8.77 | 46.6 | 0 | 0.71 | 2.63 | 4.35 |
| 07:36 | 2 | 14.4 | 69 | 56,830 | 0.39 | 0 | 2.19 | 8.15 | 46.54 | 0 | 0.71 | 2.14 | 3.72 |
| 07:32 | 2 | 14.4 | 69 | 56,819 | 0.42 | 0 | 2.7 | 8.22 | 45.46 | 0 | 0.71 | 2.63 | 4.36 |
| 07:31 | 2 | 14.3 | 69 | 56,816 | 0.4 | 0 | 2.71 | 8.12 | 45.49 | 0 | 0.71 | 2.63 | 4.36 |
| 07:27 | 2 | 14.2 | 69 | 56,814 | 0.42 | 0 | 2.2 | 7.82 | 47.93 | 0 | 1.43 | 2.62 | 4.99 |
| 07:23 | 2 | 14.2 | 69 | 56,802 | 0.39 | 0 | 2.05 | 7.73 | 50.19 | 0 | 1.43 | 2.62 | 5.63 |
| 07:22 | 2 | 14.2 | 69 | 56,794 | 0.4 | 0 | 2.16 | 7.73 | 50.19 | 0 | 1.43 | 2.62 | 4.36 |
| 07:20 | 2 | 14.1 | 69 | 56,787 | 0.38 | 0 | 2.23 | 7.87 | 49.59 | 0 | 1.43 | 3.11 | 5 |
| 07:13 | 2 | 14 | 69 | 56,852 | 0.4 | 0 | 2.59 | 8.87 | 46.78 | 0 | 0.71 | 2.62 | 5 |
| 07:12 | 2 | 14 | 69 | 56,842 | 0.38 | 0 | 2.25 | 7.65 | 48.67 | 0 | 1.43 | 3.1 | 5 |
| 07:11 | 2 | 14 | 69 | 56,824 | 0.39 | 0 | 2.4 | 7.6 | 50.26 | 0 | 1.43 | 3.1 | 5.63 |
| 07:10 | 2 | 14 | 69 | 56,804 | 0.39 | 0 | 2.8 | 7.65 | 46.89 | 0 | 1.43 | 2.61 | 6.27 |
| 07:09 | 2 | 13.9 | 69 | 56,785 | 0.39 | 0 | 3.16 | 8.07 | 46.98 | 0 | 1.43 | 3.58 | 5.63 |
| 07:08 | 2 | 14 | 69 | 56,764 | 0.39 | 0 | 3.3 | 8.25 | 46.53 | 0 | 1.43 | 3.09 | 5 |